Flag Weather past 2 weeks in Gerolstein, Rhineland-Palatinate, Germany

Now
38 °F

Fog.


Feels Like: 35 °F
Forecast: 35 / 42 °F
Wind: 5 mph from Southeast

Location: Nuerburg-Barweiler

Current Time: Nov 27, 2014 at 4:30:37 AM

Latest Report: Nov 27, 2014 at 3:00 AM


Visibility: 2 mi

Pressure: 29.88 "Hg

Humidity: 98%

Dew point: 38 °F

Location of GerolsteinLocation

Historic Weather in Gerolstein — Graph

°F

Gerolstein temperature yesterday

Maximum temperature yesterday: 38 °F (at 2:00 AM)
Minimum temperature yesterday: 35 °F (at 8:00 AM)
Average temperature yesterday: 37 °F

Past Weeks' High & Low Weather Summary

 TemperatureHumidityPressure
High57 °F (Nov 23, 2:00 PM)100% (Nov 19, 12:00 AM)30.38 "Hg (Nov 19, 12:00 AM)
Low28 °F (Nov 25, 2:00 AM)70% (Nov 23, 2:00 PM)29.54 "Hg (Nov 16, 3:00 PM)
Average43 °F94%29.96 "Hg
* Reported Nov 12 3:00 AM — Nov 27 3:00 AM, Gerolstein, Weather by CustomWeather, © 2014

Note: Actual official high and low records may vary slightly from our data, if they occured in-between our weather recording intervals... More about our weather records

Advertising

Gerolstein weather history for previous 24 hours

 ConditionsComfort  
Time TempWeatherWind HumidityBarometerVisibility
3:00 AM
Nov 27
38 °FFog.5 mph98%29.88 "Hg2 mi
2:00 AM38 °FFog.1 mph99%29.90 "Hg2 mi
1:00 AM38 °FFog.2 mph99%29.92 "Hg2 mi
12:00 AM38 °FFog.2 mph99%29.93 "Hg2 mi
11:00 PM
Nov 26
38 °FLow clouds.3 mph98%29.94 "Hg2 mi
10:00 PM37 °FLow clouds.3 mph98%29.95 "Hg1 mi
9:00 PM37 °FLight rain. Low clouds.3 mph99%29.95 "Hg2 mi
8:00 PM38 °FFog.5 mph98%29.95 "Hg2 mi
7:00 PM37 °FFog.6 mph98%29.96 "Hg2 mi
6:00 PM38 °FFog.2 mph98%29.96 "Hg4 mi
5:00 PM37 °FFog.6 mph98%29.96 "Hg3 mi
3:00 PM38 °FLow clouds.3 mph96%29.97 "Hg4 mi
2:00 PM38 °FRain. Low clouds.5 mph97%29.98 "Hg4 mi
1:00 PM37 °FLow clouds.5 mph96%30.00 "Hg3 mi
12:00 PM36 °FLight rain. Low clouds.5 mph97%30.01 "Hg3 mi
11:00 AM36 °FLight rain. Low clouds.5 mph94%30.03 "Hg3 mi
9:00 AM35 °FFog.5 mph95%30.03 "Hg2 mi
8:00 AM35 °FFog.5 mph96%30.04 "Hg2 mi
7:00 AM36 °FFog.5 mph96%30.04 "Hg3 mi
6:00 AM36 °FFog.5 mph96%30.05 "Hg3 mi
5:00 AM37 °FFog.5 mph97%30.05 "Hg2 mi
Weather by CustomWeather, © 2014

See weather overviewHow to use our weather pages